z/d,0,0,50,50,100,100,200,200,300,300,400,400,500,500,750,750,1000,1000,2000,2000,3000,3000,4000,4000,4700,4700
2016.10.19-01:00,1.08,71.69,.81,85.67,.82,78.95,.88,77.79,.95,75.91,.85,78.51,.70,75.81,.55,61.74,.38,58.73,.18,57.25,.19,39.68,.25,43.43,.03,90.00
2016.10.19-02:00,1.11,78.15,.82,85.70,.80,77.41,.86,76.10,.93,76.81,.81,79.24,.66,75.96,.55,63.27,.39,61.08,.17,58.92,.17,34.96,.22,38.02,.02,90.00
2016.10.19-03:00,1.13,83.10,.82,85.63,.79,75.22,.83,73.16,.89,76.84,.76,79.31,.61,75.27,.54,66.39,.39,65.46,.15,61.05,.15,27.92,.19,30.38,.00,90.00
2016.10.19-04:00,1.09,87.86,.79,85.28,.78,73.05,.81,69.30,.84,75.86,.71,78.34,.56,73.22,.51,70.85,.37,71.73,.11,64.29,.12,18.60,.16,20.59,.01,270.00
2016.10.19-05:00,.98,92.61,.71,83.90,.76,71.14,.81,65.76,.81,74.39,.68,76.46,.54,70.09,.48,75.94,.35,79.40,.08,69.80,.10,8.04,.13,9.29,.02,270.00
2016.10.19-06:00,.86,97.81,.65,81.48,.75,70.66,.84,64.65,.80,73.88,.67,74.95,.54,67.58,.45,80.88,.32,87.52,.06,77.96,.09,.97,.12,.71,.02,270.00
2016.10.19-07:00,.77,102.15,.62,79.03,.77,72.11,.88,65.95,.81,74.33,.68,73.77,.57,65.67,.41,83.79,.28,94.32,.06,88.25,.08,4.89,.11,1.49,.02,270.00
2016.10.19-08:00,.67,105.73,.62,78.07,.79,75.34,.91,68.84,.82,75.35,.69,72.80,.61,64.58,.38,83.48,.24,97.72,.06,95.40,.09,19.91,.12,11.54,.02,270.00
2016.10.19-09:00,.56,106.91,.61,78.02,.80,79.43,.94,72.51,.83,76.59,.72,72.25,.67,64.96,.37,80.50,.21,95.36,.07,95.07,.10,33.82,.14,21.95,.01,270.00
2016.10.19-10:00,.43,102.40,.60,77.54,.79,83.14,.95,76.02,.84,77.38,.75,71.72,.73,66.15,.38,75.96,.20,85.98,.08,89.75,.13,43.28,.17,29.60,.00,90.00
2016.10.19-11:00,.36,88.42,.59,76.58,.77,85.82,.96,79.09,.84,77.66,.78,71.40,.77,68.02,.41,71.81,.20,73.71,.09,83.65,.15,48.41,.19,33.31,.01,90.00
2016.10.19-12:00,.37,69.44,.60,75.05,.75,86.87,.97,81.37,.85,77.62,.80,71.65,.80,70.56,.43,69.53,.23,64.89,.09,78.14,.15,49.85,.20,33.09,.01,90.00
2016.10.19-13:00,.47,57.71,.63,73.69,.73,86.27,.96,82.76,.85,77.45,.81,72.54,.81,73.55,.45,69.33,.25,60.87,.08,72.71,.14,47.85,.20,29.47,.01,90.00
2016.10.19-14:00,.59,55.24,.67,73.65,.71,84.67,.94,83.18,.85,77.20,.81,73.74,.80,76.56,.45,70.65,.27,60.03,.06,64.47,.12,41.66,.19,23.27,.01,90.00
2016.10.19-15:00,.72,57.01,.71,74.45,.70,82.41,.89,82.50,.82,76.60,.79,74.74,.76,79.18,.44,73.09,.28,60.91,.04,47.80,.09,29.89,.18,16.17,.00,270.00
2016.10.19-16:00,.83,59.60,.75,75.12,.69,79.65,.84,80.65,.79,75.29,.75,75.09,.70,81.12,.40,76.47,.28,63.07,.03,13.19,.06,9.63,.16,9.45,.01,270.00
2016.10.19-17:00,.87,61.36,.76,75.51,.68,77.05,.80,78.00,.77,73.26,.72,74.52,.64,81.89,.37,80.00,.28,66.54,.03,337.72,.05,339.45,.14,3.10,.01,270.00
2016.10.19-18:00,.84,61.68,.73,76.43,.67,75.73,.79,75.77,.77,71.57,.72,73.72,.62,81.62,.35,82.77,.28,71.06,.03,329.98,.06,318.37,.13,358.91,.02,270.00
2016.10.19-19:00,.87,63.64,.71,77.81,.67,75.93,.80,74.73,.80,70.58,.74,73.11,.62,80.52,.32,83.26,.27,74.97,.03,347.62,.06,322.52,.12,4.21,.01,270.00
2016.10.19-20:00,.93,67.70,.70,79.69,.70,77.63,.82,74.94,.84,70.35,.77,72.85,.63,78.96,.29,79.16,.25,76.10,.05,14.91,.06,349.22,.13,19.56,.00,270.00
2016.10.19-21:00,.98,72.61,.71,81.98,.73,80.62,.85,76.45,.89,71.31,.81,73.52,.66,78.31,.30,72.33,.25,74.91,.08,33.13,.08,16.90,.15,33.57,.01,90.00
2016.10.19-22:00,.98,75.42,.71,83.96,.75,83.74,.88,78.31,.94,72.73,.85,74.41,.70,78.14,.34,66.09,.27,72.37,.12,43.85,.12,30.78,.19,41.14,.01,90.00
2016.10.19-23:00,1.00,79.77,.70,85.96,.75,86.54,.90,79.98,.98,74.28,.88,74.95,.74,77.48,.41,61.24,.30,68.88,.15,50.59,.16,37.50,.22,44.53,.02,90.00
2016.10.19-24:00,1.01,85.50,.68,88.05,.73,88.45,.91,81.13,1.01,75.92,.89,75.34,.75,76.38,.48,58.16,.34,65.76,.18,55.38,.19,40.99,.24,45.39,.02,90.00
2016.10.20-01:00,1.03,91.64,.66,89.32,.70,88.32,.90,81.23,1.02,77.57,.90,75.92,.75,75.34,.54,57.43,.37,64.21,.19,59.01,.20,41.82,.24,43.81,.02,90.00
2016.10.20-02:00,1.05,97.52,.65,89.78,.67,86.24,.90,80.51,1.03,79.41,.89,77.17,.73,75.19,.57,59.68,.39,65.08,.19,61.58,.19,39.55,.23,38.99,.01,90.00
2016.10.20-03:00,1.06,102.14,.64,89.22,.66,82.47,.89,78.52,1.00,80.60,.86,78.03,.69,75.14,.58,63.82,.39,67.77,.17,64.17,.18,35.60,.21,31.96,.00,90.00
2016.10.20-04:00,1.04,105.98,.63,89.03,.65,78.92,.86,75.67,.95,80.78,.81,77.74,.64,74.07,.56,68.81,.38,71.58,.14,67.63,.15,30.42,.18,23.07,.01,270.00
2016.10.20-05:00,.95,111.74,.58,89.38,.64,76.04,.84,72.33,.89,79.68,.76,75.73,.60,71.26,.54,74.06,.37,76.60,.12,73.88,.12,23.65,.16,11.88,.02,270.00
2016.10.20-06:00,.84,119.77,.51,88.65,.62,73.54,.83,69.64,.85,78.18,.74,73.43,.60,68.70,.51,79.69,.35,83.11,.10,83.78,.10,14.98,.15,359.97,.02,270.00
2016.10.20-07:00,.74,128.81,.48,86.28,.64,72.59,.85,68.79,.84,77.34,.75,72.17,.62,67.43,.47,84.29,.31,89.56,.08,95.54,.09,11.89,.15,356.14,.03,270.00
2016.10.20-08:00,.65,140.09,.46,83.98,.66,73.66,.88,69.71,.84,77.05,.77,71.67,.65,66.73,.41,85.27,.25,93.11,.07,105.46,.09,19.66,.15,2.69,.02,270.00
2016.10.20-09:00,.57,149.49,.46,83.22,.68,76.99,.90,72.47,.85,77.56,.81,72.25,.70,67.35,.38,82.75,.20,91.45,.06,108.10,.10,31.48,.16,14.14,.01,270.00
2016.10.20-10:00,.49,162.72,.45,81.55,.70,80.42,.93,75.65,.87,77.86,.85,73.02,.75,68.50,.37,77.96,.18,83.40,.05,99.94,.12,40.44,.18,24.35,.00,90.00
2016.10.20-11:00,.41,181.59,.43,78.15,.70,83.21,.95,78.73,.88,77.87,.89,73.79,.80,69.74,.38,72.53,.19,71.99,.06,85.12,.13,47.04,.20,32.07,.02,90.00
2016.10.20-12:00,.33,204.23,.42,72.80,.68,84.90,.96,81.44,.90,78.13,.92,75.15,.84,71.46,.42,68.31,.22,62.39,.06,68.62,.15,49.68,.21,35.68,.02,90.00
2016.10.20-13:00,.27,236.09,.42,65.62,.66,84.89,.95,83.30,.91,78.73,.94,77.28,.86,73.91,.46,66.94,.26,58.14,.06,53.89,.14,48.89,.21,35.30,.02,90.00
2016.10.20-14:00,.21,275.59,.47,63.26,.66,84.59,.94,84.49,.92,79.85,.94,80.14,.86,77.11,.49,68.47,.30,58.56,.06,39.01,.13,43.89,.21,31.15,.02,90.00
2016.10.20-15:00,.21,331.42,.55,65.10,.67,83.75,.91,84.14,.90,80.18,.91,82.56,.83,79.91,.50,71.22,.32,60.65,.06,25.49,.11,34.32,.19,24.49,.01,90.00
2016.10.20-16:00,.34,14.84,.64,69.05,.68,82.47,.87,81.73,.86,78.90,.85,83.85,.76,81.82,.48,74.39,.34,63.07,.06,16.26,.09,21.26,.17,17.56,.00,90.00
2016.10.20-17:00,.52,32.68,.69,73.02,.68,81.47,.83,78.12,.83,76.51,.79,84.11,.70,82.89,.45,78.01,.34,66.06,.06,10.16,.07,2.33,.15,9.83,.01,270.00
2016.10.20-18:00,.60,39.70,.67,75.72,.64,79.92,.81,74.45,.82,74.07,.77,83.85,.67,83.35,.42,81.99,.34,70.46,.05,9.31,.07,341.83,.14,1.88,.02,270.00
2016.10.20-19:00,.64,45.81,.66,77.26,.63,77.92,.82,71.95,.84,72.47,.76,83.36,.65,83.10,.37,85.13,.32,75.18,.05,15.21,.07,337.95,.13,1.41,.02,270.00
2016.10.20-20:00,.71,53.16,.68,79.47,.64,77.20,.85,71.63,.88,71.94,.75,82.17,.63,81.26,.31,84.40,.28,78.28,.06,25.87,.07,352.33,.13,11.42,.01,270.00
2016.10.20-21:00,.75,62.61,.69,83.20,.66,77.97,.90,73.66,.92,72.46,.76,80.26,.64,77.94,.28,77.01,.25,78.17,.09,36.19,.08,15.05,.14,25.74,.00,270.00
2016.10.20-22:00,.79,72.85,.70,88.09,.70,79.63,.94,77.36,.97,73.72,.78,78.31,.67,74.70,.30,67.51,.24,75.93,.11,43.60,.11,30.02,.17,35.38,.01,90.00
2016.10.20-23:00,.82,81.83,.69,92.78,.73,81.24,.97,81.14,1.01,74.79,.82,76.40,.73,72.22,.37,61.54,.26,72.83,.14,49.62,.14,37.65,.19,39.99,.01,90.00
2016.10.20-24:00,.81,88.24,.65,95.96,.73,82.05,.96,83.86,1.04,75.54,.84,74.70,.78,70.50,.45,58.16,.29,68.67,.17,54.79,.17,42.22,.22,42.21,.02,90.00
2016.10.21-01:00,.78,93.62,.59,95.67,.72,80.95,.94,84.90,1.05,76.48,.85,73.76,.82,69.82,.53,56.82,.33,65.00,.19,59.49,.19,44.29,.23,42.19,.02,90.00
2016.10.21-02:00,.75,97.97,.55,91.64,.72,78.31,.92,84.50,1.07,78.31,.86,74.29,.84,70.70,.59,58.33,.36,63.90,.19,63.61,.20,42.77,.23,38.34,.02,90.00
2016.10.21-03:00,.74,101.50,.54,86.13,.72,74.41,.88,82.58,1.05,80.23,.85,74.98,.83,72.14,.62,61.77,.40,65.23,.19,67.72,.19,38.64,.22,31.28,.01,90.00
2016.10.21-04:00,.73,104.92,.57,82.52,.74,70.88,.84,78.72,1.01,80.91,.81,74.09,.79,72.81,.63,66.03,.41,67.86,.17,72.22,.18,33.90,.21,23.49,.00,270.00
2016.10.21-05:00,.69,110.25,.57,80.88,.77,69.83,.82,73.45,.95,79.75,.77,71.05,.75,72.33,.62,71.07,.41,71.62,.15,77.30,.16,28.42,.20,15.38,.01,270.00
2016.10.21-06:00,.61,115.60,.54,77.66,.78,70.10,.82,68.08,.91,77.44,.76,67.39,.73,71.93,.59,77.15,.41,76.84,.12,83.44,.14,22.29,.19,7.84,.01,270.00
2016.10.21-07:00,.55,118.16,.55,73.83,.81,71.02,.86,64.31,.89,75.08,.77,64.81,.71,72.06,.53,83.16,.36,82.35,.09,91.07,.13,20.27,.18,5.97,.01,270.00
2016.10.21-08:00,.49,117.25,.58,71.91,.85,73.29,.91,63.48,.90,73.77,.81,64.09,.70,72.29,.45,86.44,.29,85.26,.07,98.97,.12,24.10,.18,9.92,.01,270.00
2016.10.21-09:00,.41,115.42,.58,70.58,.85,76.42,.96,65.52,.92,74.07,.86,65.36,.73,72.90,.40,85.39,.23,83.07,.05,100.79,.12,31.36,.18,16.69,.00,90.00
2016.10.21-10:00,.32,114.28,.57,68.13,.84,79.21,1.00,69.16,.95,75.09,.93,67.37,.77,73.59,.38,81.50,.20,77.47,.04,88.13,.12,39.16,.19,23.81,.01,90.00
2016.10.21-11:00,.21,105.96,.57,64.31,.80,80.71,1.04,73.24,.98,75.91,.99,69.01,.82,73.75,.38,76.61,.20,72.10,.04,63.62,.13,45.40,.20,29.52,.02,90.00
2016.10.21-12:00,.15,71.07,.59,61.69,.77,81.06,1.06,77.45,1.00,76.73,1.03,70.44,.85,73.63,.40,71.57,.21,67.10,.05,45.67,.14,49.73,.21,33.48,.02,90.00
2016.10.21-13:00,.19,34.39,.64,61.68,.77,80.55,1.07,81.51,1.02,78.14,1.06,72.57,.87,74.41,.43,68.20,.24,63.09,.06,34.43,.14,51.12,.21,34.60,.02,90.00
2016.10.21-14:00,.34,32.04,.71,62.24,.79,79.17,1.06,84.61,1.03,80.00,1.07,75.56,.87,76.55,.47,67.69,.28,61.96,.08,28.27,.13,48.63,.21,32.08,.02,90.00
2016.10.21-15:00,.49,38.57,.78,63.24,.81,77.74,1.01,86.10,1.00,81.59,1.04,78.69,.85,79.21,.50,68.88,.32,63.14,.09,28.26,.11,41.90,.20,26.52,.01,90.00
2016.10.21-16:00,.65,46.38,.85,65.53,.85,76.92,.94,85.26,.94,81.79,.98,81.02,.78,81.27,.50,70.29,.35,65.04,.09,32.25,.10,30.95,.19,19.61,.00,90.00
2016.10.21-17:00,.76,52.31,.92,69.66,.89,77.52,.89,82.49,.89,80.44,.91,82.40,.71,82.48,.49,71.61,.36,66.77,.09,36.60,.08,15.86,.17,13.01,.00,270.00
2016.10.21-18:00,.83,56.74,.96,74.14,.91,78.82,.85,78.33,.85,78.06,.85,83.02,.66,83.02,.46,73.47,.36,69.14,.08,39.54,.07,359.30,.16,7.98,.01,270.00
2016.10.21-19:00,.90,60.60,.98,77.50,.93,80.36,.85,73.93,.84,75.64,.82,83.27,.62,83.00,.42,76.07,.34,73.07,.08,42.36,.08,351.92,.15,7.62,.01,270.00
2016.10.21-20:00,.96,64.62,.99,80.59,.93,82.51,.88,71.28,.86,74.20,.81,83.17,.61,81.66,.38,77.38,.30,76.92,.08,45.92,.09,355.79,.15,12.50,.01,270.00
2016.10.21-21:00,.99,69.55,.99,84.16,.92,84.74,.93,71.48,.91,74.44,.83,82.68,.63,78.86,.36,75.13,.27,77.70,.08,47.87,.09,6.19,.16,20.95,.00,270.00
2016.10.21-22:00,1.01,75.02,.97,87.95,.90,86.53,.99,74.24,.96,75.83,.87,81.89,.67,75.63,.37,71.02,.25,75.59,.09,48.92,.11,19.00,.17,30.01,.00,90.00
2016.10.21-23:00,1.02,80.92,.92,91.46,.86,87.11,1.04,78.32,1.00,77.26,.90,80.39,.74,72.56,.42,68.18,.26,73.56,.11,51.61,.13,28.45,.18,35.43,.01,90.00
2016.10.21-24:00,1.03,86.69,.88,94.04,.83,86.14,1.05,82.30,1.01,77.92,.91,77.87,.79,69.67,.48,66.48,.29,72.04,.14,56.04,.16,35.06,.20,37.64,.01,90.00
2016.10.22-01:00,1.06,92.08,.85,95.31,.82,84.10,1.05,85.17,1.01,77.85,.92,75.07,.85,67.53,.53,65.10,.31,69.60,.16,60.56,.19,39.85,.22,37.87,.01,90.00
2016.10.22-02:00,1.07,96.30,.83,94.84,.83,81.42,1.01,86.30,1.00,77.51,.94,73.33,.88,67.08,.58,64.78,.34,67.11,.18,64.62,.21,42.52,.23,35.89,.01,90.00
2016.10.22-03:00,1.06,98.83,.83,92.86,.85,78.38,.97,85.51,.99,77.52,.95,73.59,.91,68.87,.61,66.77,.37,66.85,.19,68.03,.21,42.14,.23,30.56,.01,90.00
2016.10.22-04:00,1.00,100.82,.84,90.33,.87,75.10,.92,82.41,.98,77.11,.95,74.68,.91,71.57,.63,70.30,.40,68.82,.19,71.30,.21,39.80,.24,23.51,.00,90.00
2016.10.22-05:00,.86,105.76,.82,88.64,.89,73.03,.89,77.80,.96,75.92,.94,75.68,.88,74.08,.63,74.30,.42,71.52,.17,74.12,.19,36.60,.23,16.94,.00,270.00
2016.10.22-06:00,.80,106.54,.82,87.06,.93,72.09,.90,72.98,.95,74.52,.93,76.55,.84,76.11,.59,78.23,.41,73.65,.15,75.54,.18,34.32,.23,13.52,.00,270.00
2016.10.22-07:00,.77,105.90,.85,85.79,.98,71.57,.93,69.50,.96,73.44,.90,77.09,.79,77.49,.52,82.15,.37,75.33,.12,75.70,.16,34.35,.23,14.32,.00,90.00
2016.10.22-08:00,.63,106.54,.85,85.17,1.00,71.61,.97,68.17,.97,72.70,.89,77.03,.75,77.89,.45,85.34,.32,77.16,.09,76.26,.15,34.81,.22,16.45,.01,90.00
2016.10.22-09:00,.57,102.79,.84,84.93,1.01,73.07,1.01,69.56,.99,72.89,.90,76.97,.75,77.67,.41,85.83,.28,77.24,.07,75.14,.14,35.47,.22,19.42,.01,90.00
2016.10.22-10:00,.53,98.23,.83,85.01,1.02,76.03,1.05,73.17,1.02,74.02,.93,77.34,.78,77.48,.38,82.94,.25,73.59,.05,65.41,.13,38.06,.22,24.26,.02,90.00
2016.10.22-11:00,.43,86.72,.82,85.09,1.01,79.55,1.07,77.19,1.05,75.19,.96,77.59,.81,77.14,.37,77.91,.24,68.68,.05,50.63,.13,41.54,.22,29.35,.02,90.00
2016.10.22-12:00,.41,68.49,.82,85.30,1.00,82.87,1.08,80.12,1.08,75.80,.98,77.27,.84,76.14,.39,72.13,.24,65.77,.06,44.56,.13,44.32,.22,33.01,.03,90.00
2016.10.22-13:00,.50,58.50,.86,87.07,1.00,86.39,1.09,82.21,1.11,76.88,1.01,77.50,.86,75.26,.42,66.60,.26,63.92,.08,43.62,.13,44.63,.22,34.15,.03,90.00
2016.10.22-14:00,.63,56.71,.91,90.14,1.02,89.31,1.10,83.93,1.14,79.10,1.02,78.95,.87,75.38,.46,62.98,.29,62.73,.09,43.29,.13,41.68,.22,32.40,.02,90.00
2016.10.22-15:00,.75,56.24,.92,92.68,1.02,90.56,1.08,84.95,1.14,81.78,1.00,80.96,.86,76.39,.50,62.09,.33,63.15,.10,44.80,.13,37.07,.22,29.06,.02,90.00
2016.10.22-16:00,.87,57.54,.88,93.24,1.00,90.63,1.04,84.55,1.10,83.87,.96,82.74,.82,77.79,.53,63.64,.37,65.67,.11,47.39,.12,30.40,.21,23.98,.01,90.00
2016.10.22-17:00,.97,62.08,.83,92.76,.97,90.77,1.00,82.84,1.05,84.59,.90,83.63,.78,78.70,.55,66.22,.40,68.89,.12,50.01,.12,22.60,.20,18.29,.01,90.00
2016.10.22-18:00,1.02,71.67,.82,92.44,.95,90.78,.99,80.61,1.01,83.92,.86,83.35,.75,78.64,.55,68.74,.40,71.54,.11,50.79,.12,16.57,.19,14.74,.00,90.00
2016.10.22-19:00,1.06,81.30,.83,90.97,.94,90.18,1.00,78.56,.99,82.49,.83,82.33,.71,78.15,.53,71.96,.38,74.58,.10,49.95,.12,14.33,.19,14.57,.00,90.00
2016.10.22-20:00,1.07,87.90,.85,88.58,.94,89.32,1.02,77.37,.98,80.84,.82,80.91,.71,77.64,.50,76.45,.35,78.69,.10,49.21,.12,14.08,.19,15.74,.00,90.00
2016.10.22-21:00,1.06,91.57,.87,86.66,.95,89.07,1.05,77.83,.99,79.83,.83,79.67,.73,77.37,.49,80.40,.32,81.92,.09,47.52,.12,15.56,.19,18.03,.00,90.00
2016.10.22-22:00,1.03,93.79,.88,85.80,.95,89.65,1.08,79.45,1.03,79.48,.87,78.61,.78,77.05,.48,81.97,.29,82.18,.10,46.24,.13,21.06,.19,23.07,.01,90.00
2016.10.22-23:00,.96,96.06,.86,85.97,.92,90.45,1.10,81.31,1.06,79.49,.90,77.38,.83,76.46,.48,81.48,.27,80.25,.11,48.76,.14,28.58,.20,28.68,.01,90.00
2016.10.22-24:00,.88,98.40,.82,87.41,.89,90.81,1.10,82.91,1.10,79.91,.93,75.69,.87,75.38,.48,79.75,.27,77.92,.13,54.86,.16,34.57,.21,31.79,.02,90.00
2016.10.23-01:00,.85,100.69,.83,89.63,.87,90.25,1.11,84.05,1.12,80.76,.95,73.60,.90,73.90,.50,76.94,.29,74.94,.16,61.13,.18,38.57,.22,32.56,.02,90.00
2016.10.23-02:00,.86,103.08,.86,91.42,.89,89.15,1.11,84.88,1.12,81.98,.97,72.05,.92,73.04,.52,74.06,.31,71.28,.18,65.52,.20,41.03,.24,31.98,.02,90.00
2016.10.23-03:00,.86,105.79,.89,91.62,.91,87.59,1.10,84.90,1.11,82.99,.99,71.47,.93,73.40,.54,72.63,.34,68.58,.19,68.19,.21,42.40,.25,30.73,.02,90.00
2016.10.23-04:00,.84,107.78,.88,90.79,.92,85.52,1.09,83.49,1.10,83.02,1.01,71.82,.94,75.02,.56,73.48,.37,68.12,.19,69.63,.21,42.03,.26,28.05,.02,90.00
2016.10.23-05:00,.80,110.97,.85,90.76,.91,83.10,1.07,80.82,1.08,81.82,1.04,72.75,.95,77.42,.58,75.86,.40,69.35,.19,70.56,.21,39.95,.27,23.98,.02,90.00
2016.10.23-06:00,.78,116.87,.83,91.99,.91,80.52,1.07,77.80,1.07,80.04,1.06,74.01,.94,79.99,.57,77.89,.41,70.26,.17,71.30,.20,37.88,.27,20.89,.02,90.00
2016.10.23-07:00,.78,122.30,.84,93.19,.94,78.15,1.09,75.18,1.05,78.17,1.05,75.12,.89,82.01,.51,78.42,.39,70.18,.15,71.81,.19,37.16,.27,20.47,.02,90.00
2016.10.23-08:00,.74,127.05,.81,93.07,.97,76.04,1.09,73.61,1.04,76.53,1.03,76.11,.83,83.21,.45,78.24,.37,70.86,.13,71.43,.18,36.48,.27,21.39,.02,90.00
2016.10.23-09:00,.65,133.73,.75,91.15,.98,75.47,1.10,73.92,1.05,75.79,1.02,77.26,.80,83.62,.42,77.86,.34,72.85,.11,67.60,.17,34.74,.27,22.71,.03,90.00
2016.10.23-10:00,.55,139.62,.70,88.18,1.00,77.16,1.12,75.95,1.08,75.94,1.04,78.22,.80,82.89,.41,76.11,.32,74.21,.09,57.88,.16,33.44,.26,25.18,.03,90.00
2016.10.23-11:00,.40,144.10,.66,84.37,.99,80.15,1.13,78.71,1.12,76.70,1.07,78.93,.82,81.52,.42,73.42,.29,74.05,.09,45.29,.15,33.89,.25,28.92,.04,90.00
2016.10.23-12:00,.24,142.70,.65,78.98,.99,82.92,1.13,80.93,1.15,77.61,1.09,79.51,.85,80.18,.43,70.74,.27,72.66,.10,38.98,.15,35.91,.24,32.76,.04,90.00
2016.10.23-13:00,.14,119.29,.72,75.15,1.00,85.38,1.14,82.30,1.19,78.80,1.11,80.42,.87,79.24,.45,67.88,.26,69.60,.11,39.93,.15,37.80,.24,35.02,.04,90.00
2016.10.23-14:00,.16,76.58,.84,75.63,1.03,87.82,1.16,83.14,1.21,80.59,1.11,81.95,.87,78.76,.48,65.21,.27,65.85,.12,44.49,.15,37.78,.23,34.45,.04,90.00
2016.10.23-15:00,.28,54.67,.93,77.52,1.04,89.53,1.15,83.41,1.21,82.66,1.10,83.71,.87,78.52,.53,64.00,.31,64.29,.13,51.29,.15,36.04,.23,31.34,.03,90.00
2016.10.23-16:00,.38,47.14,.95,78.83,1.01,90.41,1.13,82.99,1.19,84.35,1.07,85.32,.85,78.40,.57,64.70,.36,65.33,.14,58.20,.15,32.86,.22,26.48,.03,90.00
2016.10.23-17:00,.45,48.33,.96,80.07,.97,90.82,1.11,82.03,1.15,85.08,1.04,86.38,.83,78.04,.61,66.53,.40,67.18,.15,63.54,.15,29.20,.22,21.57,.02,90.00
2016.10.23-18:00,.53,58.65,.99,82.81,.96,91.13,1.10,80.96,1.11,84.69,.99,86.58,.81,77.11,.62,68.76,.41,68.67,.14,66.29,.14,26.35,.22,18.59,.02,90.00
2016.10.23-19:00,.66,70.29,1.04,85.97,.96,91.20,1.11,79.92,1.09,83.43,.95,85.97,.79,75.90,.61,71.76,.40,70.17,.13,66.32,.14,24.66,.22,18.00,.02,90.00
2016.10.23-20:00,.78,76.59,1.05,86.98,.95,90.09,1.12,78.95,1.07,81.79,.93,85.08,.79,75.50,.60,76.44,.39,73.04,.11,63.67,.14,22.91,.22,18.34,.02,90.00
2016.10.23-21:00,.86,78.97,1.03,85.85,.93,87.89,1.13,78.80,1.07,80.59,.92,84.38,.82,76.32,.59,81.96,.37,76.66,.09,57.09,.14,21.28,.22,19.30,.02,90.00
2016.10.23-22:00,.89,80.67,1.01,84.56,.92,86.05,1.15,80.01,1.09,80.28,.92,83.68,.86,77.62,.58,86.45,.35,79.05,.09,47.42,.14,21.95,.22,21.81,.02,90.00
2016.10.23-23:00,.87,82.08,.97,83.91,.91,85.07,1.15,81.91,1.12,80.46,.93,82.38,.89,78.50,.55,88.88,.32,79.54,.09,41.97,.14,25.43,.22,25.47,.03,90.00
2016.10.23-24:00,.84,83.90,.93,84.20,.91,85.11,1.15,83.80,1.14,80.83,.94,80.41,.92,78.64,.53,89.12,.31,78.76,.11,44.56,.15,29.60,.23,28.29,.03,90.00
2016.10.24-01:00,.83,87.25,.92,85.71,.91,86.10,1.13,85.13,1.15,81.23,.97,78.23,.94,78.22,.52,87.69,.31,77.62,.13,50.89,.16,32.84,.23,29.35,.03,90.00
2016.10.24-02:00,.86,92.40,.94,88.21,.94,87.64,1.12,85.47,1.17,81.53,1.00,76.40,.96,77.59,.51,85.32,.32,76.49,.16,56.27,.17,35.01,.24,29.49,.03,90.00
2016.10.24-03:00,.91,98.74,.99,91.46,.96,89.30,1.12,84.71,1.17,81.54,1.03,75.08,.97,76.89,.50,82.68,.34,75.79,.18,60.19,.19,36.48,.25,29.39,.03,90.00
2016.10.24-04:00,.94,105.27,1.02,95.28,.96,90.40,1.11,82.89,1.17,81.02,1.07,74.15,.98,76.27,.51,80.32,.36,75.74,.20,63.39,.20,37.20,.26,28.82,.03,90.00
2016.10.24-05:00,.94,111.49,1.04,99.42,.94,90.23,1.11,80.61,1.17,80.12,1.10,73.87,.99,76.29,.53,78.84,.39,75.83,.20,66.00,.21,37.20,.28,27.72,.03,90.00
2016.10.24-06:00,.95,116.62,1.06,103.43,.94,88.90,1.13,78.75,1.16,79.24,1.13,74.31,.99,77.21,.53,78.19,.39,75.28,.20,67.74,.22,37.29,.29,27.15,.03,90.00
2016.10.24-07:00,.95,121.81,1.08,107.61,.95,87.56,1.15,77.67,1.15,78.35,1.12,75.00,.96,78.43,.51,77.40,.38,73.45,.19,68.68,.21,37.90,.29,27.58,.04,90.00
2016.10.24-08:00,.89,128.41,1.04,111.41,.93,86.15,1.15,76.90,1.13,77.22,1.11,75.64,.93,79.53,.48,76.77,.37,71.71,.17,69.23,.20,38.32,.29,28.33,.04,90.00
2016.10.24-09:00,.76,135.63,.94,113.97,.90,84.59,1.14,76.67,1.12,76.29,1.10,76.56,.92,80.76,.47,77.09,.36,71.73,.15,69.03,.19,37.61,.28,28.64,.04,90.00
2016.10.24-10:00,.60,142.43,.82,114.84,.88,83.82,1.14,77.85,1.13,76.37,1.11,78.05,.92,82.22,.45,77.12,.34,72.32,.13,66.32,.17,35.82,.27,28.81,.04,90.00
2016.10.24-11:00,.43,149.85,.70,113.92,.86,83.92,1.14,80.19,1.15,77.19,1.13,79.72,.92,83.44,.44,75.62,.31,72.12,.11,60.54,.16,34.22,.26,29.66,.04,90.00
2016.10.24-12:00,.27,160.02,.59,110.29,.85,84.23,1.15,82.67,1.18,78.04,1.14,81.05,.93,84.05,.44,72.79,.29,71.21,.10,54.18,.15,33.68,.24,31.18,.05,90.00
2016.10.24-13:00,.14,179.19,.52,103.57,.86,84.51,1.15,84.41,1.20,78.66,1.14,81.98,.92,84.12,.45,69.41,.28,69.82,.11,50.28,.14,34.11,.23,32.65,.05,90.00
2016.10.24-14:00,.05,218.66,.51,95.70,.89,84.91,1.15,85.08,1.21,79.23,1.12,82.76,.89,83.80,.47,66.43,.29,68.57,.12,50.51,.14,34.45,.22,32.74,.04,90.00
2016.10.24-15:00,.06,318.14,.51,88.95,.93,85.60,1.14,84.98,1.22,80.01,1.10,83.46,.87,83.12,.50,64.92,.31,68.83,.13,54.86,.14,33.56,.22,30.32,.04,90.00
2016.10.24-16:00,.14,338.93,.50,80.17,.93,86.28,1.13,84.52,1.22,81.03,1.08,84.11,.85,82.15,.55,65.22,.34,70.50,.15,61.08,.15,31.44,.22,26.03,.04,90.00
2016.10.24-17:00,.22,350.48,.49,66.54,.92,86.92,1.10,83.91,1.20,82.16,1.06,84.94,.84,81.15,.60,66.49,.37,71.75,.16,66.43,.16,29.61,.23,22.57,.04,90.00
2016.10.24-18:00,.30,11.18,.55,54.98,.94,87.91,1.08,83.23,1.17,83.11,1.03,85.84,.82,80.13,.63,67.97,.39,71.21,.16,69.26,.16,29.31,.25,21.99,.04,90.00
2016.10.24-19:00,.38,26.77,.66,53.96,.97,89.38,1.07,82.28,1.13,83.41,.99,86.27,.81,78.95,.64,70.15,.39,69.96,.15,69.51,.16,29.67,.25,23.43,.04,90.00
2016.10.24-20:00,.47,35.56,.76,55.89,.98,90.73,1.05,80.88,1.09,82.80,.95,85.88,.80,77.75,.65,73.83,.39,70.25,.13,67.51,.16,28.80,.26,24.77,.04,90.00
2016.10.24-21:00,.54,40.55,.84,57.74,.98,91.58,1.04,79.42,1.07,81.65,.91,84.83,.80,76.83,.64,78.88,.39,72.84,.11,63.17,.16,26.27,.26,25.22,.04,90.00
2016.10.24-22:00,.60,44.16,.90,59.42,.95,91.99,1.04,78.92,1.06,80.84,.89,83.50,.81,76.28,.61,84.26,.38,76.22,.10,55.51,.15,23.74,.25,25.76,.04,90.00
2016.10.24-23:00,.63,47.21,.95,61.12,.92,92.09,1.04,79.69,1.07,80.62,.88,81.73,.83,75.71,.58,88.68,.35,79.03,.09,46.52,.15,22.91,.25,27.04,.04,90.00
2016.10.24-24:00,.63,50.09,.97,63.44,.87,92.06,1.04,81.20,1.07,80.55,.89,79.19,.86,74.70,.54,91.30,.33,81.33,.10,42.92,.16,23.93,.25,28.24,.03,90.00
2016.10.25-01:00,.61,53.09,.97,66.37,.81,91.58,1.03,82.82,1.08,80.47,.90,76.25,.88,73.59,.51,91.75,.32,82.85,.12,45.67,.16,26.38,.24,28.84,.03,90.00
2016.10.25-02:00,.58,56.75,.97,69.84,.76,90.25,1.01,84.09,1.09,80.44,.92,73.65,.91,72.84,.48,89.87,.32,82.94,.14,50.79,.17,29.66,.24,29.12,.03,90.00
2016.10.25-03:00,.56,60.55,.98,73.63,.73,88.17,1.00,84.58,1.10,80.40,.96,71.70,.94,72.47,.46,85.83,.32,81.96,.17,56.13,.19,32.95,.25,29.26,.03,90.00
2016.10.25-04:00,.54,63.07,.99,77.31,.72,85.63,.99,83.93,1.11,80.10,1.00,70.32,.97,72.42,.47,80.90,.34,80.82,.19,60.76,.20,35.69,.26,29.48,.03,90.00
2016.10.25-05:00,.53,65.07,1.00,81.19,.72,83.58,.98,82.39,1.11,79.51,1.05,69.53,1.00,72.83,.49,76.95,.35,79.78,.20,63.82,.21,37.59,.28,29.99,.04,90.00
2016.10.25-06:00,.53,67.66,1.02,85.31,.75,82.72,.98,80.37,1.10,78.64,1.08,69.31,1.01,73.77,.51,74.50,.35,77.93,.21,64.94,.22,39.08,.29,31.25,.04,90.00
2016.10.25-07:00,.55,70.76,1.05,89.30,.78,82.82,.99,78.30,1.09,77.66,1.11,69.89,1.02,75.44,.52,73.12,.35,74.10,.21,64.27,.23,40.45,.30,33.16,.05,90.00
2016.10.25-08:00,.54,71.57,1.05,92.19,.79,82.44,1.00,76.06,1.07,76.49,1.13,71.19,1.01,77.75,.51,72.74,.34,69.03,.20,63.07,.22,41.40,.30,34.76,.05,90.00
2016.10.25-09:00,.48,66.48,.98,93.15,.76,80.44,1.00,73.93,1.05,75.27,1.14,73.16,.99,80.47,.50,73.66,.34,65.39,.18,62.93,.20,40.93,.29,34.76,.05,90.00
2016.10.25-10:00,.41,50.23,.86,91.07,.71,76.81,1.00,72.95,1.05,74.62,1.15,75.91,.98,83.30,.49,75.25,.34,64.23,.17,63.86,.18,38.37,.28,33.04,.05,90.00
2016.10.25-11:00,.39,22.99,.71,81.82,.67,72.20,1.00,73.79,1.06,74.82,1.16,79.15,.97,85.76,.48,76.44,.34,64.68,.15,64.40,.16,34.02,.27,30.65,.05,90.00
2016.10.25-12:00,.46,6.18,.62,67.60,.65,68.06,1.00,76.11,1.08,75.35,1.16,82.06,.95,87.22,.48,76.57,.33,65.93,.13,63.82,.15,29.56,.25,28.96,.05,90.00
2016.10.25-13:00,.56,358.88,.62,58.46,.67,66.53,1.01,79.12,1.09,75.53,1.13,83.88,.91,87.24,.47,75.32,.32,67.94,.12,63.44,.14,26.48,.24,27.99,.05,90.00
2016.10.25-14:00,.65,357.51,.66,55.30,.73,67.67,1.01,81.81,1.10,75.29,1.08,84.46,.86,85.93,.46,72.88,.32,70.59,.12,65.01,.14,25.50,.23,27.22,.04,90.00
2016.10.25-15:00,.74,358.27,.71,54.23,.78,69.83,1.02,83.66,1.13,75.37,1.03,84.35,.81,84.19,.47,70.51,.33,73.25,.13,67.38,.15,26.04,.23,26.45,.04,90.00